Time,TemperatureF,DewpointF,PressureIn,WindDirection,WindDirectionDegrees,WindSpeedMPH,WindSpeedGustMPH,Humidity,HourlyPrecipIn,Conditions,Clouds,dailyrainin,SoftwareType,DateUTC
2013-05-23 00:00:00,46.5,42.6,29.97,SSW,203,1.7,2.9,86,0.02,,,0.03,WUHU216HW,2013-05-23 07:00:00,
2013-05-23 00:05:00,46.7,42.8,29.98,SSW,203,5.8,5.8,86,0.02,,,0.03,WUHU216HW,2013-05-23 07:05:00,
2013-05-23 00:10:00,46.5,42.6,29.98,SW,225,0.0,5.8,86,0.02,,,0.03,WUHU216HW,2013-05-23 07:10:00,
2013-05-23 00:15:00,46.5,42.6,29.98,SSW,203,2.4,3.1,86,0.02,,,0.03,WUHU216HW,2013-05-23 07:15:00,
2013-05-23 00:20:00,46.4,42.4,29.98,South,180,0.0,3.1,86,0.00,,,0.03,WUHU216HW,2013-05-23 07:20:00,
2013-05-23 00:25:00,46.4,42.2,29.98,SSE,158,3.3,3.3,86,0.02,,,0.05,WUHU216HW,2013-05-23 07:25:00,
2013-05-23 00:30:00,46.0,42.1,29.98,South,180,4.2,4.2,86,0.02,,,0.05,WUHU216HW,2013-05-23 07:30:00,
2013-05-23 00:35:00,46.0,42.1,29.98,SSW,203,3.1,4.2,86,0.02,,,0.05,WUHU216HW,2013-05-23 07:35:00,
2013-05-23 00:40:00,46.0,42.1,29.98,SW,225,0.0,4.2,86,0.02,,,0.05,WUHU216HW,2013-05-23 07:40:00,
2013-05-23 00:45:00,45.8,41.9,29.98,SSW,203,0.0,2.9,86,0.02,,,0.05,WUHU216HW,2013-05-23 07:45:00,
2013-05-23 00:50:00,45.8,41.9,29.98,South,180,1.1,5.1,86,0.02,,,0.05,WUHU216HW,2013-05-23 07:50:00,
2013-05-23 00:55:00,45.6,42.0,29.98,SSW,203,5.1,5.1,87,0.04,,,0.05,WUHU216HW,2013-05-23 07:55:00,
2013-05-23 01:00:00,45.8,42.2,29.98,SSE,158,2.0,5.1,87,0.04,,,0.07,WUHU216HW,2013-05-23 08:00:00,
2013-05-23 01:05:00,45.6,42.0,29.98,South,180,0.0,5.1,87,0.04,,,0.07,WUHU216HW,2013-05-23 08:05:00,
2013-05-23 01:10:00,45.6,42.0,29.98,SW,225,1.7,2.0,87,0.04,,,0.07,WUHU216HW,2013-05-23 08:10:00,
2013-05-23 01:15:00,45.5,41.8,29.98,South,180,1.7,2.0,87,0.04,,,0.07,WUHU216HW,2013-05-23 08:15:00,
2013-05-23 01:20:00,45.5,41.8,29.98,SSW,203,1.1,5.5,87,0.02,,,0.07,WUHU216HW,2013-05-23 08:20:00,
2013-05-23 01:25:00,45.5,41.8,29.98,SW,225,0.0,5.5,87,0.02,,,0.07,WUHU216HW,2013-05-23 08:25:00,
2013-05-23 01:30:00,45.5,41.8,29.98,SSW,203,4.0,4.6,87,0.02,,,0.07,WUHU216HW,2013-05-23 08:30:00,
2013-05-23 01:35:00,45.5,41.8,29.98,South,180,4.4,4.6,87,0.04,,,0.09,WUHU216HW,2013-05-23 08:35:00,
2013-05-23 01:40:00,45.5,41.8,29.98,SSW,203,0.0,5.8,87,0.04,,,0.09,WUHU216HW,2013-05-23 08:40:00,
2013-05-23 01:45:00,45.3,41.7,29.98,SW,225,0.0,5.8,87,0.04,,,0.09,WUHU216HW,2013-05-23 08:45:00,
2013-05-23 01:50:00,45.3,42.0,29.99,SW,225,0.0,1.7,88,0.04,,,0.09,WUHU216HW,2013-05-23 08:50:00,
2013-05-23 01:55:00,45.3,42.0,29.98,SW,225,0.0,0.4,88,0.02,,,0.09,WUHU216HW,2013-05-23 08:55:00,
2013-05-23 02:00:00,45.3,42.0,29.98,SSW,203,0.6,0.6,88,0.02,,,0.09,WUHU216HW,2013-05-23 09:00:00,
2013-05-23 02:05:00,45.1,41.8,29.98,SSW,203,0.6,0.6,88,0.04,,,0.09,WUHU216HW,2013-05-23 09:05:00,
2013-05-23 02:10:00,45.1,41.8,29.98,South,180,0.0,0.6,88,0.04,,,0.11,WUHU216HW,2013-05-23 09:10:00,
2013-05-23 02:15:00,45.1,41.8,29.98,South,180,1.1,1.1,88,0.04,,,0.11,WUHU216HW,2013-05-23 09:15:00,
2013-05-23 02:20:00,45.1,41.8,29.98,South,180,0.0,1.1,88,0.04,,,0.11,WUHU216HW,2013-05-23 09:20:00,
2013-05-23 02:25:00,45.1,41.8,29.98,South,180,1.3,1.3,88,0.04,,,0.11,WUHU216HW,2013-05-23 09:25:00,
2013-05-23 02:30:00,45.1,41.8,29.98,South,180,0.0,1.3,88,0.02,,,0.11,WUHU216HW,2013-05-23 09:30:00,
2013-05-23 02:35:00,45.1,41.8,29.98,SW,225,0.0,1.5,88,0.02,,,0.11,WUHU216HW,2013-05-23 09:35:00,
2013-05-23 02:40:00,45.1,41.8,29.98,SW,225,4.0,4.0,88,0.02,,,0.11,WUHU216HW,2013-05-23 09:40:00,
2013-05-23 02:45:00,45.1,41.8,29.98,South,180,1.1,4.0,88,0.02,,,0.11,WUHU216HW,2013-05-23 09:45:00,
2013-05-23 02:50:00,45.1,41.8,29.98,South,180,0.0,3.5,88,0.02,,,0.11,WUHU216HW,2013-05-23 09:50:00,
2013-05-23 02:55:00,45.1,41.8,29.98,SSW,203,0.0,3.5,88,0.02,,,0.11,WUHU216HW,2013-05-23 09:55:00,
2013-05-23 03:00:00,45.1,42.1,29.98,SSW,203,0.0,1.1,89,0.02,,,0.11,WUHU216HW,2013-05-23 10:00:00,
2013-05-23 03:05:00,45.1,42.1,29.99,SW,225,0.0,2.0,89,0.00,,,0.11,WUHU216HW,2013-05-23 10:05:00,
2013-05-23 03:10:00,45.1,42.1,29.99,SW,225,1.5,2.0,89,0.00,,,0.11,WUHU216HW,2013-05-23 10:10:00,
2013-05-23 03:15:00,45.1,42.1,29.98,SSW,203,0.0,2.0,89,0.00,,,0.11,WUHU216HW,2013-05-23 10:15:00,
2013-05-23 03:20:00,45.1,42.1,29.99,SSW,203,0.0,1.5,89,0.00,,,0.11,WUHU216HW,2013-05-23 10:20:00,
2013-05-23 03:25:00,45.1,42.1,29.99,SSW,203,1.1,2.6,89,0.00,,,0.11,WUHU216HW,2013-05-23 10:25:00,
2013-05-23 03:30:00,45.1,42.1,29.99,SSW,203,0.0,2.6,89,0.00,,,0.11,WUHU216HW,2013-05-23 10:30:00,
2013-05-23 03:35:00,45.1,42.1,29.99,SSW,203,0.0,1.1,89,0.00,,,0.11,WUHU216HW,2013-05-23 10:35:00,
2013-05-23 03:40:00,44.9,42.1,29.99,South,180,0.0,0.0,89,0.02,,,0.13,WUHU216HW,2013-05-23 10:40:00,
2013-05-23 03:45:00,45.1,42.1,29.99,SSW,203,1.1,1.1,89,0.02,,,0.13,WUHU216HW,2013-05-23 10:45:00,
2013-05-23 03:50:00,44.9,41.9,29.99,South,180,0.0,1.1,89,0.02,,,0.13,WUHU216HW,2013-05-23 10:50:00,
2013-05-23 03:55:00,44.9,41.9,29.99,South,180,0.0,1.1,89,0.02,,,0.13,WUHU216HW,2013-05-23 10:55:00,
2013-05-23 04:00:00,44.9,41.9,29.98,South,180,0.0,1.7,89,0.02,,,0.13,WUHU216HW,2013-05-23 11:00:00,
2013-05-23 04:05:00,44.9,41.9,29.99,SSW,203,0.0,1.7,89,0.02,,,0.13,WUHU216HW,2013-05-23 11:05:00,
2013-05-23 04:10:00,44.9,41.9,29.99,SW,225,5.3,5.3,89,0.02,,,0.13,WUHU216HW,2013-05-23 11:10:00,
2013-05-23 04:15:00,44.9,41.9,29.99,SW,225,0.0,5.3,89,0.02,,,0.13,WUHU216HW,2013-05-23 11:15:00,
2013-05-23 04:20:00,44.9,41.9,29.99,South,180,0.0,5.3,89,0.02,,,0.13,WUHU216HW,2013-05-23 11:20:00,
2013-05-23 04:25:00,44.7,41.7,29.98,SW,225,1.3,2.4,89,0.02,,,0.13,WUHU216HW,2013-05-23 11:25:00,
2013-05-23 04:30:00,44.9,42.2,29.99,SSW,203,0.0,2.0,90,0.02,,,0.13,WUHU216HW,2013-05-23 11:30:00,
2013-05-23 04:35:00,44.7,42.0,29.99,South,180,0.0,1.3,90,0.02,,,0.13,WUHU216HW,2013-05-23 11:35:00,
2013-05-23 04:40:00,44.9,42.2,29.99,SSW,203,0.0,0.0,90,0.00,,,0.13,WUHU216HW,2013-05-23 11:40:00,
2013-05-23 04:45:00,44.9,42.2,29.99,SW,225,0.0,0.0,90,0.00,,,0.13,WUHU216HW,2013-05-23 11:45:00,
2013-05-23 04:50:00,44.9,42.2,29.99,SW,225,0.0,2.4,90,0.00,,,0.13,WUHU216HW,2013-05-23 11:50:00,
2013-05-23 04:55:00,44.7,42.0,29.99,SW,225,0.0,2.4,90,0.00,,,0.13,WUHU216HW,2013-05-23 11:55:00,
2013-05-23 05:00:00,44.9,42.2,29.99,South,180,1.5,1.5,90,0.00,,,0.13,WUHU216HW,2013-05-23 12:00:00,
2013-05-23 05:05:00,44.9,42.2,29.99,South,180,1.5,1.5,90,0.00,,,0.13,WUHU216HW,2013-05-23 12:05:00,
2013-05-23 05:10:00,44.9,42.2,29.98,South,180,0.0,2.0,90,0.00,,,0.13,WUHU216HW,2013-05-23 12:10:00,
2013-05-23 05:15:00,44.7,42.0,29.99,SSW,203,0.0,2.0,90,0.00,,,0.13,WUHU216HW,2013-05-23 12:15:00,
2013-05-23 05:20:00,44.9,42.2,29.99,South,180,0.0,0.0,90,0.00,,,0.13,WUHU216HW,2013-05-23 12:20:00,
2013-05-23 05:25:00,44.9,42.2,29.99,South,180,0.0,0.6,90,0.02,,,0.15,WUHU216HW,2013-05-23 12:25:00,
2013-05-23 05:30:00,44.9,42.2,29.99,SSW,203,0.0,0.6,90,0.02,,,0.15,WUHU216HW,2013-05-23 12:30:00,
2013-05-23 05:35:00,44.7,42.0,29.99,SSE,158,0.0,0.6,90,0.02,,,0.15,WUHU216HW,2013-05-23 12:35:00,
2013-05-23 05:40:00,44.7,42.0,29.99,SSE,158,0.0,1.1,90,0.02,,,0.15,WUHU216HW,2013-05-23 12:40:00,
2013-05-23 05:45:00,44.7,42.0,29.99,SSW,203,0.0,1.1,90,0.02,,,0.15,WUHU216HW,2013-05-23 12:45:00,
2013-05-23 05:50:00,44.7,42.0,29.99,SSW,203,1.1,1.1,90,0.02,,,0.15,WUHU216HW,2013-05-23 12:50:00,
2013-05-23 05:55:00,44.7,42.0,29.99,South,180,1.3,1.3,90,0.02,,,0.15,WUHU216HW,2013-05-23 12:55:00,
2013-05-23 06:00:00,44.7,42.0,29.99,South,180,0.0,2.6,90,0.02,,,0.15,WUHU216HW,2013-05-23 13:00:00,
2013-05-23 06:05:00,44.7,42.0,29.99,SW,225,0.0,2.6,90,0.02,,,0.15,WUHU216HW,2013-05-23 13:05:00,
2013-05-23 06:10:00,44.7,42.0,29.99,SW,225,0.0,3.3,90,0.02,,,0.15,WUHU216HW,2013-05-23 13:10:00,
2013-05-23 06:15:00,44.9,42.2,29.99,South,180,0.0,3.3,90,0.02,,,0.15,WUHU216HW,2013-05-23 13:15:00,
2013-05-23 06:20:00,44.9,42.2,29.99,SSW,203,0.0,0.0,90,0.02,,,0.15,WUHU216HW,2013-05-23 13:20:00,
2013-05-23 06:25:00,44.9,42.2,29.99,SSW,203,0.0,0.0,90,0.00,,,0.15,WUHU216HW,2013-05-23 13:25:00,
2013-05-23 06:30:00,44.9,42.2,30.00,SSW,203,0.0,0.0,90,0.00,,,0.15,WUHU216HW,2013-05-23 13:30:00,
2013-05-23 06:35:00,44.9,42.2,30.00,SSW,203,0.0,0.4,90,0.00,,,0.15,WUHU216HW,2013-05-23 13:35:00,
2013-05-23 06:40:00,44.9,42.2,30.00,SSW,203,0.8,0.8,90,0.00,,,0.15,WUHU216HW,2013-05-23 13:40:00,
2013-05-23 06:45:00,44.9,41.9,30.00,SSW,203,0.6,2.2,89,0.00,,,0.15,WUHU216HW,2013-05-23 13:45:00,
2013-05-23 06:50:00,44.9,41.9,30.00,South,180,1.3,2.2,89,0.00,,,0.15,WUHU216HW,2013-05-23 13:50:00,
2013-05-23 06:55:00,45.1,42.1,30.00,South,180,2.6,2.6,89,0.00,,,0.15,WUHU216HW,2013-05-23 13:55:00,
2013-05-23 07:00:00,45.1,42.1,29.99,SSW,203,0.0,2.6,89,0.00,,,0.15,WUHU216HW,2013-05-23 14:00:00,
2013-05-23 07:05:00,45.1,42.1,30.00,South,180,0.0,2.6,89,0.00,,,0.15,WUHU216HW,2013-05-23 14:05:00,
2013-05-23 07:10:00,45.3,42.3,30.00,SSW,203,0.0,1.1,89,0.00,,,0.15,WUHU216HW,2013-05-23 14:10:00,
2013-05-23 07:15:00,45.5,42.4,30.00,South,180,0.0,1.7,89,0.00,,,0.15,WUHU216HW,2013-05-23 14:15:00,
2013-05-23 07:20:00,45.5,42.4,30.00,South,180,3.3,3.3,89,0.00,,,0.15,WUHU216HW,2013-05-23 14:20:00,
2013-05-23 07:25:00,45.5,42.4,30.00,SSW,203,0.0,3.3,89,0.00,,,0.15,WUHU216HW,2013-05-23 14:25:00,
2013-05-23 07:30:00,45.5,42.4,30.00,SSW,203,0.0,3.3,89,0.00,,,0.15,WUHU216HW,2013-05-23 14:30:00,
2013-05-23 07:35:00,45.5,42.4,30.01,SW,225,1.1,3.8,89,0.00,,,0.15,WUHU216HW,2013-05-23 14:35:00,
2013-05-23 07:40:00,45.5,42.1,30.01,SSW,203,0.0,3.8,88,0.00,,,0.15,WUHU216HW,2013-05-23 14:40:00,
2013-05-23 07:45:00,45.5,42.1,30.00,SW,225,0.0,4.2,88,0.00,,,0.15,WUHU216HW,2013-05-23 14:45:00,
2013-05-23 07:50:00,45.5,42.1,30.00,SSW,203,0.0,4.2,88,0.00,,,0.15,WUHU216HW,2013-05-23 14:50:00,
2013-05-23 07:55:00,45.6,42.3,30.00,SSW,203,0.0,0.0,88,0.00,,,0.15,WUHU216HW,2013-05-23 14:55:00,
2013-05-23 08:00:00,45.6,42.3,30.00,SSW,203,0.0,0.0,88,0.00,,,0.15,WUHU216HW,2013-05-23 15:00:00,
2013-05-23 08:05:00,45.8,42.5,30.00,SSE,158,1.1,2.2,88,0.00,,,0.15,WUHU216HW,2013-05-23 15:05:00,
2013-05-23 08:10:00,45.8,42.5,30.01,SSE,158,0.0,2.2,88,0.00,,,0.15,WUHU216HW,2013-05-23 15:10:00,
2013-05-23 08:15:00,45.8,42.5,30.01,SSE,158,2.0,2.0,88,0.00,,,0.15,WUHU216HW,2013-05-23 15:15:00,
2013-05-23 08:20:00,45.8,42.5,30.01,SSW,203,0.0,3.5,88,0.00,,,0.15,WUHU216HW,2013-05-23 15:20:00,
2013-05-23 08:25:00,46.0,42.7,30.01,SSW,203,0.0,3.5,88,0.00,,,0.15,WUHU216HW,2013-05-23 15:25:00,
2013-05-23 08:30:00,46.0,42.7,30.01,South,180,0.8,1.7,88,0.00,,,0.15,WUHU216HW,2013-05-23 15:30:00,
2013-05-23 08:35:00,46.0,42.7,30.01,SW,225,3.1,4.0,88,0.00,,,0.15,WUHU216HW,2013-05-23 15:35:00,
2013-05-23 08:40:00,46.0,42.7,30.02,SW,225,0.0,4.0,88,0.00,,,0.15,WUHU216HW,2013-05-23 15:40:00,
2013-05-23 08:45:00,46.0,42.7,30.02,South,180,2.4,3.1,88,0.00,,,0.15,WUHU216HW,2013-05-23 15:45:00,
2013-05-23 08:50:00,46.2,42.9,30.02,SSE,158,2.4,2.4,88,0.00,,,0.15,WUHU216HW,2013-05-23 15:50:00,
2013-05-23 08:55:00,46.5,43.2,30.01,South,180,0.0,2.4,88,0.00,,,0.15,WUHU216HW,2013-05-23 15:55:00,
2013-05-23 09:00:00,46.5,43.2,30.01,South,180,0.0,2.4,88,0.00,,,0.15,WUHU216HW,2013-05-23 16:00:00,
2013-05-23 09:05:00,46.5,43.2,30.01,South,180,0.0,1.3,88,0.00,,,0.15,WUHU216HW,2013-05-23 16:05:00,
2013-05-23 09:10:00,46.7,43.4,30.01,SSE,158,0.0,2.6,88,0.00,,,0.15,WUHU216HW,2013-05-23 16:10:00,
2013-05-23 09:15:00,47.1,43.7,30.01,SSW,203,0.0,2.6,88,0.00,,,0.15,WUHU216HW,2013-05-23 16:15:00,
2013-05-23 09:20:00,47.3,43.9,30.02,WNW,293,0.0,0.0,88,0.00,,,0.15,WUHU216HW,2013-05-23 16:20:00,
2013-05-23 09:25:00,47.3,43.6,30.01,SW,225,0.0,0.0,87,0.00,,,0.15,WUHU216HW,2013-05-23 16:25:00,
2013-05-23 09:30:00,47.6,43.9,30.01,SSW,203,1.5,2.4,87,0.00,,,0.15,WUHU216HW,2013-05-23 16:30:00,
2013-05-23 09:35:00,47.4,43.8,30.01,WSW,248,0.0,2.4,87,0.00,,,0.15,WUHU216HW,2013-05-23 16:35:00,
2013-05-23 09:40:00,47.8,44.1,30.01,SSE,158,1.7,1.7,87,0.00,,,0.15,WUHU216HW,2013-05-23 16:40:00,
2013-05-23 09:45:00,48.2,44.5,30.01,SSW,203,6.0,6.0,87,0.00,,,0.15,WUHU216HW,2013-05-23 16:45:00,
2013-05-23 09:49:00,48.5,44.8,30.01,SSW,203,0.0,6.0,87,0.00,,,0.15,WUHU216HW,2013-05-23 16:49:00,
2013-05-23 09:54:00,48.7,44.7,30.01,SSW,203,0.0,6.0,86,0.00,,,0.15,WUHU216HW,2013-05-23 16:54:00,
2013-05-23 09:59:00,49.1,44.8,30.01,SE,135,3.8,4.2,86,0.00,,,0.15,WUHU216HW,2013-05-23 16:59:00,
2013-05-23 10:04:00,48.9,44.8,30.01,SSE,158,0.0,3.8,86,0.00,,,0.15,WUHU216HW,2013-05-23 17:04:00,
2013-05-23 10:09:00,48.9,44.5,30.01,SSE,158,2.0,2.4,85,0.00,,,0.15,WUHU216HW,2013-05-23 17:09:00,
2013-05-23 10:14:00,49.4,44.7,30.01,SSW,203,0.0,2.0,84,0.00,,,0.15,WUHU216HW,2013-05-23 17:14:00,
2013-05-23 10:19:00,49.4,44.7,30.01,South,180,1.7,1.7,84,0.00,,,0.15,WUHU216HW,2013-05-23 17:19:00,
2013-05-23 10:24:00,49.4,44.7,30.01,SSW,203,2.4,2.4,84,0.00,,,0.15,WUHU216HW,2013-05-23 17:24:00,
2013-05-23 10:29:00,49.4,44.4,30.01,South,180,0.0,2.4,83,0.00,,,0.15,WUHU216HW,2013-05-23 17:29:00,
2013-05-23 10:34:00,49.6,44.6,30.02,SW,225,7.3,7.3,83,0.00,,,0.15,WUHU216HW,2013-05-23 17:34:00,
2013-05-23 10:39:00,49.4,44.1,30.01,SSW,203,5.1,7.3,82,0.00,,,0.15,WUHU216HW,2013-05-23 17:39:00,
2013-05-23 10:44:00,49.6,44.3,30.01,SSW,203,3.5,7.3,82,0.00,,,0.15,WUHU216HW,2013-05-23 17:44:00,
2013-05-23 10:49:00,49.8,44.4,30.02,SSW,203,2.0,5.1,82,0.00,,,0.15,WUHU216HW,2013-05-23 17:49:00,
2013-05-23 10:54:00,50.1,44.8,30.01,SSW,203,2.4,3.1,82,0.00,,,0.15,WUHU216HW,2013-05-23 17:54:00,
2013-05-23 10:59:00,50.1,44.8,30.01,SW,225,0.0,2.4,82,0.00,,,0.15,WUHU216HW,2013-05-23 17:59:00,
2013-05-23 11:04:00,50.1,44.8,30.01,SSW,203,0.0,2.9,81,0.00,,,0.15,WUHU216HW,2013-05-23 18:04:00,
2013-05-23 11:09:00,50.3,44.7,30.01,SSE,158,1.1,2.9,81,0.00,,,0.15,WUHU216HW,2013-05-23 18:09:00,
2013-05-23 11:14:00,50.5,44.9,30.01,SW,225,0.0,1.1,81,0.00,,,0.15,WUHU216HW,2013-05-23 18:14:00,
2013-05-23 11:19:00,50.7,45.0,30.01,South,180,0.0,2.2,81,0.00,,,0.15,WUHU216HW,2013-05-23 18:19:00,
2013-05-23 11:24:00,50.7,45.0,30.01,SSW,203,1.5,2.2,81,0.00,,,0.15,WUHU216HW,2013-05-23 18:24:00,
2013-05-23 11:29:00,50.9,45.2,30.01,East,90,0.0,1.5,81,0.00,,,0.15,WUHU216HW,2013-05-23 18:29:00,
2013-05-23 11:34:00,51.0,44.7,30.01,South,180,0.8,3.5,79,0.00,,,0.15,WUHU216HW,2013-05-23 18:34:00,
2013-05-23 11:39:00,51.2,44.9,30.01,SSE,158,0.0,3.8,79,0.00,,,0.15,WUHU216HW,2013-05-23 18:39:00,
2013-05-23 11:44:00,51.2,44.6,30.01,SSW,203,2.4,3.8,78,0.00,,,0.15,WUHU216HW,2013-05-23 18:44:00,
2013-05-23 11:49:00,51.4,44.8,30.01,SSE,158,3.1,3.1,78,0.00,,,0.15,WUHU216HW,2013-05-23 18:49:00,
2013-05-23 11:54:00,51.6,44.6,30.02,SSW,203,2.2,7.8,77,0.00,,,0.15,WUHU216HW,2013-05-23 18:54:00,
2013-05-23 11:59:00,51.6,44.6,30.02,South,180,0.6,7.8,77,0.00,,,0.15,WUHU216HW,2013-05-23 18:59:00,
2013-05-23 12:04:00,51.8,44.8,30.01,SSE,158,1.3,1.3,77,0.00,,,0.15,WUHU216HW,2013-05-23 19:04:00,
2013-05-23 12:09:00,51.9,44.9,30.01,SSW,203,0.0,2.4,77,0.00,,,0.15,WUHU216HW,2013-05-23 19:09:00,
2013-05-23 12:14:00,52.3,45.3,30.01,SW,225,0.0,2.4,77,0.00,,,0.15,WUHU216HW,2013-05-23 19:14:00,
2013-05-23 12:19:00,52.7,44.9,30.01,SSW,203,0.0,3.8,75,0.00,,,0.15,WUHU216HW,2013-05-23 19:19:00,
2013-05-23 12:24:00,52.7,44.6,30.01,SW,225,0.0,3.8,74,0.00,,,0.15,WUHU216HW,2013-05-23 19:24:00,
2013-05-23 12:29:00,52.8,44.4,30.01,SSE,158,1.1,1.7,73,0.00,,,0.15,WUHU216HW,2013-05-23 19:29:00,
2013-05-23 12:34:00,53.2,44.7,30.01,SSW,203,1.1,5.1,73,0.00,,,0.15,WUHU216HW,2013-05-23 19:34:00,
2013-05-23 12:39:00,53.2,44.4,30.01,SSW,203,0.0,5.1,72,0.00,,,0.15,WUHU216HW,2013-05-23 19:39:00,
2013-05-23 12:44:00,53.4,44.6,30.01,South,180,0.0,1.1,72,0.00,,,0.15,WUHU216HW,2013-05-23 19:44:00,
2013-05-23 12:49:00,53.6,44.4,30.01,SSE,158,1.1,6.0,71,0.00,,,0.15,WUHU216HW,2013-05-23 19:49:00,
2013-05-23 12:54:00,53.7,44.5,30.01,SSW,203,0.0,6.0,71,0.00,,,0.15,WUHU216HW,2013-05-23 19:54:00,
2013-05-23 12:59:00,53.7,44.2,30.01,SW,225,1.5,4.4,70,0.00,,,0.15,WUHU216HW,2013-05-23 19:59:00,
2013-05-23 13:04:00,53.7,44.2,30.01,SE,135,1.3,4.4,70,0.00,,,0.15,WUHU216HW,2013-05-23 20:04:00,
2013-05-23 13:09:00,53.7,43.8,30.01,SW,225,2.0,2.0,69,0.00,,,0.15,WUHU216HW,2013-05-23 20:09:00,
2013-05-23 13:14:00,53.9,44.0,30.01,South,180,3.3,3.5,69,0.00,,,0.15,WUHU216HW,2013-05-23 20:14:00,
2013-05-23 13:19:00,54.1,44.1,30.01,SSW,203,0.0,4.4,69,0.00,,,0.15,WUHU216HW,2013-05-23 20:19:00,
2013-05-23 13:24:00,54.3,43.9,30.00,SSE,158,3.1,4.4,68,0.00,,,0.15,WUHU216HW,2013-05-23 20:24:00,
2013-05-23 13:29:00,54.3,43.9,30.00,South,180,3.1,4.0,68,0.00,,,0.15,WUHU216HW,2013-05-23 20:29:00,
2013-05-23 13:34:00,54.3,43.9,30.01,SE,135,0.0,4.0,68,0.00,,,0.15,WUHU216HW,2013-05-23 20:34:00,
2013-05-23 13:39:00,54.5,43.7,30.00,SSW,203,3.3,3.3,67,0.00,,,0.15,WUHU216HW,2013-05-23 20:39:00,
2013-05-23 13:44:00,54.6,43.9,30.00,SW,225,0.0,3.3,67,0.00,,,0.15,WUHU216HW,2013-05-23 20:44:00,
2013-05-23 13:49:00,54.8,44.0,30.00,SSE,158,4.6,4.6,67,0.00,,,0.15,WUHU216HW,2013-05-23 20:49:00,
2013-05-23 13:54:00,54.6,43.5,30.00,SSE,158,7.1,7.1,66,0.00,,,0.15,WUHU216HW,2013-05-23 20:54:00,
2013-05-23 13:59:00,54.5,43.3,30.00,SSW,203,5.5,7.1,66,0.00,,,0.15,WUHU216HW,2013-05-23 20:59:00,
2013-05-23 14:04:00,54.5,43.3,30.00,SSW,203,0.0,5.5,66,0.00,,,0.15,WUHU216HW,2013-05-23 21:04:00,
2013-05-23 14:09:00,54.3,43.1,30.00,SW,225,0.0,5.5,66,0.00,,,0.15,WUHU216HW,2013-05-23 21:09:00,
2013-05-23 14:14:00,54.5,43.7,30.00,SW,225,6.0,6.0,67,0.00,,,0.15,WUHU216HW,2013-05-23 21:14:00,
2013-05-23 14:19:00,54.3,43.9,30.01,SW,225,2.9,6.0,68,0.00,,,0.15,WUHU216HW,2013-05-23 21:19:00,
2013-05-23 14:24:00,54.3,44.3,30.01,WSW,248,0.0,6.0,69,0.00,,,0.15,WUHU216HW,2013-05-23 21:24:00,
2013-05-23 14:29:00,54.1,44.9,30.01,WNW,293,1.5,1.5,71,0.02,,,0.17,WUHU216HW,2013-05-23 21:29:00,
2013-05-23 14:34:00,53.9,44.7,30.01,SW,225,0.0,1.5,71,0.02,,,0.17,WUHU216HW,2013-05-23 21:34:00,
2013-05-23 14:39:00,53.9,45.1,30.01,South,180,1.5,2.9,72,0.02,,,0.17,WUHU216HW,2013-05-23 21:39:00,
2013-05-23 14:44:00,53.2,44.4,30.02,SSW,203,1.7,2.9,72,0.04,,,0.17,WUHU216HW,2013-05-23 21:44:00,
2013-05-23 14:49:00,52.8,44.1,30.01,SSW,203,0.0,2.4,72,0.04,,,0.19,WUHU216HW,2013-05-23 21:49:00,
2013-05-23 14:54:00,52.7,44.2,30.02,SW,225,5.3,5.3,73,0.06,,,0.21,WUHU216HW,2013-05-23 21:54:00,
2013-05-23 14:59:00,52.3,44.3,30.01,SSW,203,3.5,5.3,74,0.08,,,0.23,WUHU216HW,2013-05-23 21:59:00,
2013-05-23 15:04:00,52.1,44.1,30.02,SSW,203,1.1,4.4,74,0.10,,,0.25,WUHU216HW,2013-05-23 22:04:00,
2013-05-23 15:09:00,51.9,44.3,30.01,SSW,203,0.0,3.5,75,0.14,,,0.29,WUHU216HW,2013-05-23 22:09:00,
2013-05-23 15:14:00,51.9,44.3,30.01,SW,225,0.0,0.0,75,0.16,,,0.31,WUHU216HW,2013-05-23 22:14:00,
2013-05-23 15:19:00,51.9,44.6,30.01,SW,225,1.1,1.1,76,0.16,,,0.31,WUHU216HW,2013-05-23 22:19:00,
2013-05-23 15:24:00,52.1,45.1,30.01,SSW,203,0.0,1.1,77,0.16,,,0.31,WUHU216HW,2013-05-23 22:24:00,
2013-05-23 15:28:00,52.3,45.3,30.01,South,180,0.0,0.0,77,0.14,,,0.31,WUHU216HW,2013-05-23 22:28:00,
2013-05-23 15:33:00,52.3,45.6,30.01,South,180,0.0,0.0,78,0.14,,,0.31,WUHU216HW,2013-05-23 22:33:00,
2013-05-23 15:38:00,52.3,45.5,30.01,SSW,203,0.0,0.6,78,0.14,,,0.31,WUHU216HW,2013-05-23 22:38:00,
2013-05-23 15:43:00,52.3,46.0,30.01,South,180,0.0,0.6,79,0.12,,,0.31,WUHU216HW,2013-05-23 22:43:00,
2013-05-23 15:48:00,52.5,46.2,30.00,SSW,203,0.0,0.0,79,0.12,,,0.31,WUHU216HW,2013-05-23 22:48:00,
2013-05-23 15:53:00,52.5,46.5,30.00,SW,225,0.0,0.0,80,0.08,,,0.31,WUHU216HW,2013-05-23 22:53:00,
2013-05-23 15:58:00,52.5,46.2,30.00,South,180,0.8,0.8,79,0.08,,,0.31,WUHU216HW,2013-05-23 22:58:00,
2013-05-23 16:03:00,52.7,46.4,30.00,SW,225,0.0,0.8,79,0.06,,,0.31,WUHU216HW,2013-05-23 23:03:00,
2013-05-23 16:08:00,52.7,46.4,30.00,SW,225,0.0,0.8,79,0.00,,,0.31,WUHU216HW,2013-05-23 23:08:00,
2013-05-23 16:13:00,52.7,46.4,30.00,SW,225,0.0,0.0,79,0.00,,,0.31,WUHU216HW,2013-05-23 23:13:00,
2013-05-23 16:18:00,52.7,46.4,30.00,South,180,0.0,0.0,79,0.00,,,0.31,WUHU216HW,2013-05-23 23:18:00,
2013-05-23 16:23:00,52.7,46.4,30.01,SW,225,0.0,0.0,79,0.00,,,0.31,WUHU216HW,2013-05-23 23:23:00,
2013-05-23 16:28:00,52.5,46.5,30.01,WNW,293,0.0,0.0,80,0.04,,,0.35,WUHU216HW,2013-05-23 23:28:00,
2013-05-23 16:33:00,52.5,46.8,30.00,SSW,203,0.0,0.0,81,0.04,,,0.35,WUHU216HW,2013-05-23 23:33:00,
2013-05-23 16:38:00,52.5,46.8,30.00,South,180,0.0,0.0,81,0.04,,,0.35,WUHU216HW,2013-05-23 23:38:00,
2013-05-23 16:43:00,52.3,46.4,30.00,SSW,203,1.1,1.1,80,0.04,,,0.35,WUHU216HW,2013-05-23 23:43:00,
2013-05-23 16:48:00,52.1,46.2,30.00,SW,225,0.0,1.1,80,0.04,,,0.35,WUHU216HW,2013-05-23 23:48:00,
2013-05-23 16:53:00,52.1,46.2,30.00,SSW,203,0.0,1.1,80,0.04,,,0.35,WUHU216HW,2013-05-23 23:53:00,
2013-05-23 16:58:00,52.1,46.2,30.01,SSW,203,0.0,0.0,80,0.04,,,0.35,WUHU216HW,2013-05-23 23:58:00,
2013-05-23 17:03:00,52.1,46.5,30.00,SSW,203,1.3,1.7,81,0.04,,,0.35,WUHU216HW,2013-05-24 00:03:00,
2013-05-23 17:08:00,51.9,46.3,30.00,SW,225,0.0,1.7,81,0.04,,,0.35,WUHU216HW,2013-05-24 00:08:00,
2013-05-23 17:13:00,51.9,46.3,30.00,SSW,203,0.0,1.3,81,0.06,,,0.37,WUHU216HW,2013-05-24 00:13:00,
2013-05-23 17:18:00,51.9,46.6,30.00,SSW,203,0.0,2.2,82,0.06,,,0.37,WUHU216HW,2013-05-24 00:18:00,
2013-05-23 17:23:00,51.9,46.6,30.00,SW,225,0.0,2.2,82,0.04,,,0.37,WUHU216HW,2013-05-24 00:23:00,
2013-05-23 17:28:00,51.8,46.4,30.00,SSW,203,0.0,0.0,82,0.04,,,0.39,WUHU216HW,2013-05-24 00:28:00,
2013-05-23 17:33:00,51.8,46.4,30.00,SSW,203,0.0,0.0,82,0.04,,,0.39,WUHU216HW,2013-05-24 00:33:00,
2013-05-23 17:38:00,51.6,46.2,30.00,South,180,0.0,0.0,82,0.04,,,0.39,WUHU216HW,2013-05-24 00:38:00,
2013-05-23 17:43:00,51.4,46.4,30.01,SSW,203,0.0,0.0,83,0.04,,,0.39,WUHU216HW,2013-05-24 00:43:00,
2013-05-23 17:48:00,51.4,46.4,30.01,SW,225,0.0,0.0,83,0.04,,,0.39,WUHU216HW,2013-05-24 00:48:00,
2013-05-23 17:53:00,51.4,46.4,30.00,SW,225,0.0,0.0,83,0.06,,,0.41,WUHU216HW,2013-05-24 00:53:00,
2013-05-23 17:58:00,51.4,46.4,30.00,SW,225,0.0,0.2,83,0.06,,,0.41,WUHU216HW,2013-05-24 00:58:00,
2013-05-23 18:03:00,51.4,46.4,30.00,South,180,0.0,0.2,83,0.06,,,0.41,WUHU216HW,2013-05-24 01:03:00,
2013-05-23 18:08:00,51.2,46.2,30.00,SSW,203,3.1,3.1,83,0.06,,,0.41,WUHU216HW,2013-05-24 01:08:00,
2013-05-23 18:13:00,51.2,46.2,30.00,SSW,203,0.6,3.1,83,0.04,,,0.41,WUHU216HW,2013-05-24 01:13:00,
2013-05-23 18:18:00,51.2,46.2,30.00,SW,225,0.0,0.6,83,0.04,,,0.41,WUHU216HW,2013-05-24 01:18:00,
2013-05-23 18:23:00,51.2,46.2,29.99,SSW,203,0.0,0.6,83,0.04,,,0.41,WUHU216HW,2013-05-24 01:23:00,
2013-05-23 18:28:00,51.2,46.5,29.99,SSW,203,0.0,0.0,84,0.04,,,0.43,WUHU216HW,2013-05-24 01:28:00,
2013-05-23 18:33:00,51.2,46.5,29.99,South,180,0.0,0.0,84,0.04,,,0.43,WUHU216HW,2013-05-24 01:33:00,
2013-05-23 18:38:00,51.2,46.5,29.99,SSW,203,0.0,0.0,84,0.04,,,0.43,WUHU216HW,2013-05-24 01:38:00,
2013-05-23 18:43:00,51.0,46.3,29.99,SSW,203,0.0,1.5,84,0.06,,,0.43,WUHU216HW,2013-05-24 01:43:00,
2013-05-23 18:48:00,50.9,46.1,29.99,SSW,203,0.8,1.5,84,0.04,,,0.45,WUHU216HW,2013-05-24 01:48:00,
2013-05-23 18:53:00,50.9,46.4,29.99,SSW,203,0.0,0.8,85,0.04,,,0.45,WUHU216HW,2013-05-24 01:53:00,
2013-05-23 18:58:00,50.9,46.4,29.99,SSW,203,0.0,0.0,85,0.04,,,0.45,WUHU216HW,2013-05-24 01:58:00,
2013-05-23 19:03:00,50.9,46.4,29.99,SSW,203,0.0,1.3,85,0.06,,,0.48,WUHU216HW,2013-05-24 02:03:00,
2013-05-23 19:08:00,50.9,46.7,29.99,SSE,158,0.0,1.3,86,0.06,,,0.48,WUHU216HW,2013-05-24 02:08:00,
2013-05-23 19:13:00,50.7,46.9,29.99,SSW,203,0.0,1.1,87,0.08,,,0.50,WUHU216HW,2013-05-24 02:13:00,
2013-05-23 19:18:00,50.7,46.9,29.99,SSW,203,0.0,0.0,87,0.08,,,0.50,WUHU216HW,2013-05-24 02:18:00,
2013-05-23 19:23:00,50.3,46.2,29.99,SSW,203,0.0,0.0,86,0.08,,,0.50,WUHU216HW,2013-05-24 02:23:00,
2013-05-23 19:28:00,50.3,46.2,29.99,SSW,203,0.0,0.0,86,0.08,,,0.52,WUHU216HW,2013-05-24 02:28:00,
2013-05-23 19:33:00,50.3,46.2,29.99,SSW,203,0.0,0.0,86,0.08,,,0.52,WUHU216HW,2013-05-24 02:33:00,
2013-05-23 19:38:00,50.1,46.0,29.98,South,180,0.0,0.0,86,0.08,,,0.52,WUHU216HW,2013-05-24 02:38:00,
2013-05-23 19:43:00,50.1,46.0,29.98,SSE,158,0.0,0.0,86,0.06,,,0.52,WUHU216HW,2013-05-24 02:43:00,
2013-05-23 19:48:00,50.1,46.0,29.99,SW,225,0.0,0.6,86,0.06,,,0.52,WUHU216HW,2013-05-24 02:48:00,
2013-05-23 19:53:00,50.1,46.0,30.00,SSW,203,0.0,0.6,86,0.06,,,0.52,WUHU216HW,2013-05-24 02:53:00,
2013-05-23 19:58:00,50.1,46.0,29.99,SSW,203,0.0,0.0,86,0.04,,,0.52,WUHU216HW,2013-05-24 02:58:00,
2013-05-23 20:03:00,50.1,46.3,29.99,South,180,0.0,0.0,87,0.04,,,0.52,WUHU216HW,2013-05-24 03:03:00,
2013-05-23 20:08:00,50.0,46.2,29.99,SSW,203,0.0,0.0,87,0.02,,,0.52,WUHU216HW,2013-05-24 03:08:00,
2013-05-23 20:13:00,50.0,46.2,29.99,SSW,203,0.0,0.0,87,0.02,,,0.52,WUHU216HW,2013-05-24 03:13:00,
2013-05-23 20:18:00,50.0,46.2,29.99,SSW,203,0.0,0.0,87,0.04,,,0.54,WUHU216HW,2013-05-24 03:18:00,
2013-05-23 20:23:00,50.0,46.2,29.98,SSW,203,0.0,0.0,87,0.04,,,0.54,WUHU216HW,2013-05-24 03:23:00,
2013-05-23 20:28:00,49.6,45.8,29.99,South,180,0.0,0.0,87,0.02,,,0.54,WUHU216HW,2013-05-24 03:28:00,
2013-05-23 20:33:00,49.8,46.0,29.98,SSW,203,0.0,0.0,87,0.02,,,0.54,WUHU216HW,2013-05-24 03:33:00,
2013-05-23 20:38:00,49.6,45.8,29.98,SSW,203,0.0,0.0,87,0.02,,,0.54,WUHU216HW,2013-05-24 03:38:00,
2013-05-23 20:43:00,49.6,45.8,29.98,SW,225,0.0,0.0,87,0.02,,,0.54,WUHU216HW,2013-05-24 03:43:00,
2013-05-23 20:48:00,49.6,46.1,29.98,SSW,203,0.0,0.0,88,0.02,,,0.54,WUHU216HW,2013-05-24 03:48:00,
2013-05-23 20:53:00,49.6,46.1,29.98,SW,225,0.0,0.0,88,0.04,,,0.56,WUHU216HW,2013-05-24 03:53:00,
2013-05-23 20:58:00,49.6,46.1,29.98,SSW,203,0.0,0.0,88,0.04,,,0.56,WUHU216HW,2013-05-24 03:58:00,
2013-05-23 21:01:00,49.6,46.1,29.98,SSE,158,0.0,0.0,88,0.04,,,0.56,WUHU216HW,2013-05-24 04:01:00,
2013-05-23 21:06:00,49.6,46.1,29.98,SSW,203,0.0,0.0,88,0.04,,,0.56,WUHU216HW,2013-05-24 04:06:00,
2013-05-23 21:11:00,49.4,46.0,29.98,SW,225,0.0,0.0,88,0.04,,,0.56,WUHU216HW,2013-05-24 04:11:00,
2013-05-23 21:16:00,49.6,46.1,29.99,SSW,203,2.0,2.0,88,0.02,,,0.56,WUHU216HW,2013-05-24 04:16:00,
2013-05-23 21:21:00,49.4,46.0,29.99,SSW,203,0.0,2.0,88,0.02,,,0.56,WUHU216HW,2013-05-24 04:21:00,
2013-05-23 21:26:00,49.6,46.1,29.99,SSE,158,0.0,0.0,88,0.02,,,0.56,WUHU216HW,2013-05-24 04:26:00,
2013-05-23 21:31:00,49.6,46.0,29.99,South,180,0.0,0.0,88,0.02,,,0.56,WUHU216HW,2013-05-24 04:31:00,
2013-05-23 21:36:00,49.4,46.0,29.99,South,180,0.0,0.0,88,0.02,,,0.56,WUHU216HW,2013-05-24 04:36:00,
2013-05-23 21:41:00,49.4,46.0,30.00,SSE,158,0.0,0.0,88,0.02,,,0.56,WUHU216HW,2013-05-24 04:41:00,
2013-05-23 21:46:00,49.4,46.3,29.99,SSW,203,0.0,0.6,89,0.02,,,0.56,WUHU216HW,2013-05-24 04:46:00,
2013-05-23 21:51:00,49.4,46.3,29.99,SSW,203,0.0,0.6,89,0.00,,,0.56,WUHU216HW,2013-05-24 04:51:00,
2013-05-23 21:56:00,49.4,46.3,29.99,South,180,0.0,0.0,89,0.00,,,0.56,WUHU216HW,2013-05-24 04:56:00,
2013-05-23 22:01:00,49.4,46.3,29.99,SW,225,0.0,0.0,89,0.00,,,0.56,WUHU216HW,2013-05-24 05:01:00,
2013-05-23 22:06:00,49.4,46.3,30.00,South,180,0.0,0.0,89,0.00,,,0.56,WUHU216HW,2013-05-24 05:06:00,
2013-05-23 22:11:00,49.6,46.4,29.99,SW,225,0.0,0.0,89,0.00,,,0.56,WUHU216HW,2013-05-24 05:11:00,
2013-05-23 22:16:00,49.6,46.4,30.00,SSW,203,0.0,1.7,89,0.00,,,0.56,WUHU216HW,2013-05-24 05:16:00,
2013-05-23 22:21:00,49.4,46.3,29.99,SSW,203,0.0,1.7,89,0.00,,,0.56,WUHU216HW,2013-05-24 05:21:00,
2013-05-23 22:26:00,49.6,46.4,29.99,SSW,203,0.0,0.0,89,0.00,,,0.56,WUHU216HW,2013-05-24 05:26:00,
2013-05-23 22:31:00,49.6,46.4,30.00,SSW,203,0.0,0.0,89,0.00,,,0.56,WUHU216HW,2013-05-24 05:31:00,
2013-05-23 22:36:00,49.6,46.4,29.99,SSW,203,0.0,0.0,89,0.00,,,0.56,WUHU216HW,2013-05-24 05:36:00,
2013-05-23 22:41:00,49.4,46.3,30.00,SSW,203,0.0,0.0,89,0.00,,,0.56,WUHU216HW,2013-05-24 05:41:00,
2013-05-23 22:46:00,49.4,46.3,29.99,SW,225,1.7,1.7,89,0.00,,,0.56,WUHU216HW,2013-05-24 05:46:00,
2013-05-23 22:51:00,49.6,46.4,29.99,SSW,203,0.0,1.7,89,0.00,,,0.56,WUHU216HW,2013-05-24 05:51:00,
2013-05-23 22:56:00,49.4,46.3,29.99,SSW,203,0.0,1.7,89,0.00,,,0.56,WUHU216HW,2013-05-24 05:56:00,
2013-05-23 23:01:00,49.4,46.3,29.99,South,180,0.0,0.0,89,0.00,,,0.00,WUHU216HW,2013-05-24 06:01:00,
2013-05-23 23:06:00,49.4,46.3,29.99,SSW,203,0.0,0.0,89,0.00,,,0.00,WUHU216HW,2013-05-24 06:06:00,
2013-05-23 23:11:00,49.4,46.3,29.99,SSW,203,0.0,0.0,89,0.00,,,0.00,WUHU216HW,2013-05-24 06:11:00,
2013-05-23 23:16:00,49.4,46.3,29.99,South,180,4.0,4.0,89,0.02,,,0.00,WUHU216HW,2013-05-24 06:16:00,
2013-05-23 23:20:00,49.4,46.3,29.99,SSW,203,0.0,4.0,89,0.02,,,0.02,WUHU216HW,2013-05-24 06:20:00,
2013-05-23 23:25:00,49.4,46.3,29.99,SW,225,0.0,4.0,89,0.02,,,0.02,WUHU216HW,2013-05-24 06:25:00,
2013-05-23 23:30:00,49.1,45.9,29.99,SSW,203,0.0,2.0,89,0.02,,,0.02,WUHU216HW,2013-05-24 06:30:00,
2013-05-23 23:35:00,49.2,46.1,29.99,SSW,203,0.0,2.0,89,0.02,,,0.02,WUHU216HW,2013-05-24 06:35:00,
2013-05-23 23:40:00,49.2,46.1,29.99,SSW,203,0.0,0.0,89,0.02,,,0.02,WUHU216HW,2013-05-24 06:40:00,
2013-05-23 23:45:00,49.2,46.1,29.99,SSW,203,0.0,0.0,89,0.02,,,0.02,WUHU216HW,2013-05-24 06:45:00,
2013-05-23 23:50:00,49.1,45.9,29.99,SSW,203,0.0,0.6,89,0.02,,,0.02,WUHU216HW,2013-05-24 06:50:00,
2013-05-23 23:55:00,49.1,45.9,29.98,SSW,203,0.0,0.6,89,0.02,,,0.02,WUHU216HW,2013-05-24 06:55:00,